Location: downtown San Diego
(32.7310°N, 117.1990°W)
Time: 16:30:45
(UTC-07:00)

Aureole 3 Rocket - Pass Details

Date: 12 July 2018
Orbit: 398 x 1744 km, 82.5° (Epoch: 21 July)

Event Time Altitude Azimuth Distance (km) Brightness Sun altitude
Rises 20:31:54 0° 179° (S) 3,486 6.6 -6.9°
Reaches altitude 10° 20:34:42 10° 177° (S) 2,332 5.7 -7.4°
Maximum altitude 20:39:41 65° 96° (E) 674 3.0 -8.3°
Drops below altitude 10° 20:43:23 10° 14° (NNE) 1,735 5.6 -9.0°
Sets 20:45:14 0° 11° (N) 2,517 6.5 -9.3°
